Lapeer, MI

2:07 PM EDT on April 26, 2017 (GMT -0400)
Lapeer

Weather History for KD95 - January, 2013

Change the Weather History Date:

Tuesday, January 29, 2013

  Actual Average (KFNT) Record (KFNT)
Temperature  
Mean Temperature 44 °F -  
Max Temperature 56 °F 29 °F 58 °F (2013)
Min Temperature 33 °F 16 °F -11 °F (1966)
Degree Days  
Heating Degree Days 20    
Moisture  
Dew Point 43 °F    
Average Humidity 94    
Maximum Humidity 100    
Minimum Humidity 87    
Precipitation  
Precipitation 1.05 in - - ()
Sea Level Pressure  
Sea Level Pressure 29.74 in    
Wind  
Wind Speed 7 mph (SSE)    
Max Wind Speed 22 mph    
Max Gust Speed 30 mph    
Visibility 6 miles    
Events Fog , Rain , Snow    
Averages and records for this station are not official NWS values.
T = Trace of Precipitation, MM = Missing Value Source: NWS Daily Summary

Daily Weather History Graph

Daily Weather History Graph

Search for Another Location

Airport or City:

Trip Planner

Search our weather history database for the weather conditions in past years. The results will help you decide how hot, cold, wet, or windy it might be!

Date:

Astronomy

Jan. 29, 2013 Rise Set
Actual Time 7:51 AM EST 5:41 PM EST
Civil Twilight 7:20 AM EST 6:12 PM EST
Nautical Twilight 6:46 AM EST 6:46 PM EST
Astronomical Twilight 6:13 AM EST 7:19 PM EST
Moon 8:43 PM EST (1/29) 8:42 AM EST (1/29)
Length of Visible Light 10h 51m
Length of Day
9h 50m
Waning Gibbous, 94% of the Moon is Illuminated
Jan 29
Waning Gibbous
Feb 3
Last Quarter
Feb 10
New
Feb 17
First Quarter
Feb 25
Full

Hourly Weather History & Observations

Time (EST) Temp. Windchill Dew Point Humidity Pressure Visibility Wind Dir Wind Speed Gust Speed Precip Events Conditions
12:13 AM 34.3 °F 31.4 °F 32.9 °F 94% 30.00 in 10.0 mi South 3.5 mph - N/A   Overcast
12:33 AM 34.0 °F 31.0 °F 32.9 °F 96% 30.00 in 7.0 mi SSW 3.5 mph - N/A   Overcast
1:13 AM 34.2 °F - 32.9 °F 95% 29.98 in 10.0 mi Calm Calm - N/A   Overcast
1:33 AM 34.7 °F 31.8 °F 32.9 °F 93% 29.97 in 10.0 mi SSE 3.5 mph - N/A   Overcast
1:57 AM 33.8 °F 30.8 °F 32.0 °F 93% 29.97 in 10.0 mi SE 3.5 mph - N/A   Overcast
2:17 AM 33.8 °F 30.8 °F 32.0 °F 93% 29.97 in 10.0 mi SSE 3.5 mph - N/A   Overcast
2:35 AM 33.8 °F 30.8 °F 32.0 °F 93% 29.96 in 10.0 mi ESE 3.5 mph - N/A   Overcast
2:59 AM 33.8 °F 29.6 °F 32.0 °F 93% 29.96 in 10.0 mi SE 4.6 mph - N/A   Overcast
3:17 AM 33.8 °F 30.8 °F 32.0 °F 93% 29.95 in 10.0 mi SE 3.5 mph - N/A   Overcast
3:41 AM 33.8 °F 29.6 °F 32.0 °F 93% - 5.0 mi ESE 4.6 mph - N/A   Overcast
3:57 AM 33.8 °F 27.7 °F 32.0 °F 93% - 7.0 mi SE 6.9 mph - N/A   Overcast
4:16 AM 33.8 °F 27.0 °F 32.0 °F 93% 29.92 in 3.0 mi SE 8.1 mph - N/A   Overcast
4:37 AM 33.8 °F 28.6 °F 33.8 °F 100% 29.91 in 5.0 mi ESE 5.8 mph - N/A   Overcast
5:16 AM 33.8 °F 27.7 °F 33.8 °F 100% 29.90 in 2.0 mi SE 6.9 mph - N/A   Overcast
5:20 AM 34.0 °F 27.2 °F 33.6 °F 99% 29.89 in 2.0 mi ESE 8.1 mph - N/A   Overcast
5:32 AM 34.2 °F 26.2 °F 33.8 °F 99% 29.89 in 1.5 mi SE 10.4 mph - N/A Rain Light Rain
5:53 AM 34.2 °F 26.2 °F 33.8 °F 99% 29.86 in 2.0 mi ESE 10.4 mph - N/A Rain Light Rain
6:13 AM 34.7 °F 28.8 °F 34.0 °F 97% 29.87 in 4.0 mi SSE 6.9 mph - 0.01 in Rain Rain
6:32 AM 34.7 °F 30.6 °F 34.0 °F 97% 29.86 in 5.0 mi SE 4.6 mph - 0.02 in Rain Light Rain
6:52 AM 34.7 °F 28.8 °F 33.8 °F 97% 29.84 in 2.5 mi SE 6.9 mph - 0.09 in Rain Rain
7:13 AM 34.7 °F 25.9 °F 34.0 °F 97% 29.82 in 0.8 mi SE 12.7 mph - 0.30 in Snow Snow
7:33 AM 35.4 °F 27.8 °F 34.5 °F 97% 29.83 in 1.8 mi SSE 10.4 mph 17.3 mph 0.51 in   Overcast
7:52 AM 35.8 °F 26.9 °F 35.1 °F 97% 29.83 in 0.8 mi SE 13.8 mph 18.4 mph 0.85 in Rain Light Rain
8:13 AM 35.6 °F 28.0 °F 34.7 °F 97% 29.82 in 4.0 mi ESE 10.4 mph - 0.04 in Rain Rain
8:33 AM 35.6 °F 27.5 °F 34.2 °F 94% 29.80 in 10.0 mi SE 11.5 mph - 0.04 in   Light Drizzle
8:52 AM 35.2 °F 28.1 °F 34.2 °F 96% 29.80 in 7.0 mi SE 9.2 mph - 0.05 in Rain Light Rain
9:13 AM 35.4 °F 30.5 °F 34.3 °F 96% 29.80 in 10.0 mi SSE 5.8 mph - N/A   Light Drizzle
9:33 AM 36.0 °F 30.3 °F 35.1 °F 97% 29.80 in 7.0 mi SSE 6.9 mph - N/A   Overcast
9:52 AM 36.7 °F 32.0 °F 35.8 °F 97% 29.79 in 3.0 mi SE 5.8 mph - N/A   Overcast
10:13 AM 37.0 °F 31.6 °F 36.5 °F 98% 29.78 in 1.5 mi SE 6.9 mph - N/A   Overcast
10:33 AM 38.1 °F 34.6 °F 37.6 °F 98% 29.78 in 0.8 mi South 4.6 mph - N/A   Overcast
10:53 AM 39.0 °F 35.7 °F 38.5 °F 98% 29.77 in 0.5 mi SSE 4.6 mph - N/A Fog Fog
11:13 AM 41.9 °F 38.2 °F 41.2 °F 97% 29.77 in 1.2 mi SSE 5.8 mph - N/A   Overcast
11:32 AM 42.4 °F 38.8 °F 41.9 °F 98% 29.76 in 1.8 mi SSE 5.8 mph - N/A   Overcast
11:53 AM 43.2 °F 40.5 °F 42.8 °F 99% 29.76 in 1.0 mi SSE 4.6 mph - N/A   Overcast
12:13 PM 44.4 °F 42.0 °F 43.9 °F 98% 29.74 in 1.0 mi SSE 4.6 mph - 0.01 in Rain Light Rain
12:32 PM 45.7 °F 41.5 °F 45.1 °F 98% 29.73 in 2.0 mi South 8.1 mph - 0.01 in   Light Drizzle
12:53 PM 47.5 °F - 46.9 °F 98% 29.71 in 3.0 mi SSW 8.1 mph - 0.01 in   Overcast
1:13 PM 48.2 °F - 47.5 °F 97% 29.70 in 2.5 mi South 8.1 mph - N/A   Overcast
1:32 PM 48.9 °F - 48.0 °F 97% 29.71 in 3.0 mi SSW 8.1 mph - N/A   Overcast
1:53 PM 49.5 °F - 48.6 °F 97% 29.70 in 5.0 mi SSW 10.4 mph 18.4 mph N/A Rain Rain
2:13 PM 50.5 °F - 49.1 °F 95% 29.70 in 7.0 mi SSW 8.1 mph - N/A   Overcast
2:32 PM 50.5 °F - 49.1 °F 95% 29.68 in 7.0 mi SSW 10.4 mph - N/A   Overcast
2:53 PM 51.4 °F - 50.2 °F 95% 29.67 in 7.0 mi SSW 10.4 mph 16.1 mph N/A   Overcast
3:13 PM 51.8 °F - 50.4 °F 95% 29.66 in 5.0 mi South 9.2 mph - N/A   Overcast
3:32 PM 51.8 °F - 50.4 °F 95% 29.68 in 4.0 mi SSW 9.2 mph - N/A   Overcast
3:53 PM 52.2 °F - 51.1 °F 96% 29.67 in 4.0 mi South 8.1 mph - N/A Rain Light Rain
4:13 PM 52.5 °F - 51.4 °F 96% 29.67 in 4.0 mi South 10.4 mph 16.1 mph N/A   Overcast
4:53 PM 53.1 °F - 51.3 °F 94% 29.67 in 5.0 mi SW 10.4 mph - N/A   Overcast
5:13 PM 53.4 °F - 51.4 °F 93% 29.67 in 10.0 mi SSW 12.7 mph 20.7 mph N/A Rain Rain
5:32 PM 53.4 °F - 51.4 °F 93% 29.66 in 7.0 mi SSW 9.2 mph 16.1 mph 0.02 in Rain Rain
5:53 PM 53.6 °F - 51.8 °F 94% 29.66 in 10.0 mi SSW 9.2 mph - 0.02 in Rain Rain
6:13 PM 53.8 °F - 52.0 °F 94% 29.65 in 7.0 mi South 13.8 mph 18.4 mph 0.02 in Rain Rain
6:32 PM 54.3 °F - 52.3 °F 93% 29.65 in 10.0 mi SSW 12.7 mph 20.7 mph 0.02 in   Overcast
6:53 PM 54.0 °F - 52.0 °F 93% 29.64 in 10.0 mi South 11.5 mph 18.4 mph 0.02 in   Overcast
7:13 PM 54.5 °F - 52.3 °F 92% 29.63 in 7.0 mi South 16.1 mph 23.0 mph N/A   Overcast
7:32 PM 54.5 °F - 52.3 °F 92% 29.63 in 5.0 mi South 16.1 mph 23.0 mph N/A Rain Rain
7:53 PM 55.0 °F - 52.3 °F 91% 29.60 in 7.0 mi South 16.1 mph 24.2 mph N/A   Overcast
8:13 PM 54.7 °F - 52.0 °F 91% 29.61 in 7.0 mi South 13.8 mph 21.9 mph N/A   Overcast
8:32 PM 55.0 °F - 52.0 °F 89% 29.59 in 7.0 mi South 16.1 mph 25.3 mph N/A   Overcast
8:53 PM 55.0 °F - 52.2 °F 90% 29.58 in 7.0 mi South 17.3 mph 29.9 mph N/A Rain Light Rain
9:13 PM 54.9 °F - 52.3 °F 91% 29.57 in 7.0 mi SSW 17.3 mph 25.3 mph 0.01 in Rain Light Rain
9:32 PM 55.4 °F - 52.3 °F 89% 29.55 in 10.0 mi South 16.1 mph 24.2 mph 0.01 in Rain Light Rain
9:53 PM 55.0 °F - 52.0 °F 89% 29.54 in 10.0 mi South 15.0 mph 21.9 mph 0.01 in   Overcast
10:13 PM 55.4 °F - 52.0 °F 88% 29.52 in 10.0 mi South 19.6 mph 27.6 mph N/A   Overcast
10:32 PM 56.3 °F - 52.5 °F 87% 29.51 in 10.0 mi South 17.3 mph 26.5 mph N/A   Overcast
10:53 PM 56.7 °F - 52.7 °F 87% 29.50 in 10.0 mi South 21.9 mph 25.3 mph N/A   Overcast
11:13 PM 55.9 °F - 52.3 °F 88% 29.48 in 10.0 mi South 15.0 mph 20.7 mph N/A   Overcast
11:32 PM 55.8 °F - 52.2 °F 88% 29.47 in 10.0 mi South 16.1 mph 21.9 mph N/A   Overcast
11:53 PM 55.4 °F - 52.2 °F 89% 29.46 in 10.0 mi South 12.7 mph 24.2 mph N/A   Overcast